THOR AGENA B DEB, 1948

Orbit data source: Space-Track

THOR AGENA B DEB, 1948 is space debris in LEO originally from a launch on Mon, 29 Nov 1965 UTC launched from the Air Force Western Test Range (AFWTR). Debris objects in space refer to the collection of defunct objects orbiting the Earth. Examples of debris include non-operational satellites, rocket bodies, and fragments generated from explosions, collisions, or faulty payload assembly.

Loading next visibility...
Identifier
1948, 1965-098F
Orbit
LEO
Country
Flag of USUS
Related business
Manufacturer
Unknown
Mission
Spacecraft
Bus & Motor
Unknown
Mass
~1 kg wet, ~1 kg dry
Launch date (UTC)
1965-11-29 (60 years ago)
Launch vehicle
Unknown
Launch site
Air Force Western Test Range (AFWTR)
Object type
Payload
Rocket body
Debris
Shape & HBR
Half Cyl + Cone, 0.8 m
Radar Cross Section
0.531 m², Medium (>0.1 m² and < 1m²)

Expand to show TLE details & history
Last TLE update: 1 day ago

TLE from 1 day ago
0 THOR AGENA B DEB
1 01948U 65098F   25259.92062533  .00004219  00000-0  78806-3 0  9991
2 01948  79.8477 202.5317 0762275 220.1264 134.1153 13.57870400772034
Epoch: 2025-09-16T22:05Z
TLE epoch observation values (Epoch: 2025-09-16T22:05:42.028Z)
Latitude
-0°
Longitude
-124.99742°
Altitude
1,460.639 km
Speed
6.93 km/s
True Right ascension
13h 30m 07s
True Declination
0° 00' 00"
Sunlit
Object was in daylight at epoch
Visualization orbit readout
Latitude
Unknown
Longitude
Unknown
Altitude
Unknown
Speed
Unknown
Apparent Right ascension
Unknown
Apparent Declination
Unknown
Sunlit
N/A
Visualization observer readout
Local Sidereal Time
14:34:28
Azimuth
Unknown
Elevation
Unknown
Doppler factor
Unknown
Orbital elements
Apogee altitude
1,606.255 km
Perigee altitude
475.211 km
Semi-major axis
7,418.87 km
Eccentricity
0.07623
Inclination
79.8477°
RAAN
202.5317°
Arg. of periapsis
220.1264°
True anomaly
139.98537°
Mean anomaly
134.1153°
Eccentric anomaly
137.08897°
Mean motion
3.39654 °/min
Orbital period
105.99 mins
BSTAR
0.00078806
Loading maneuver chart data...
Computing Atmospheric mass density...
Loading historical data...
Loading historical data...
Loading historical data...
Loading historical data...
Loading historical data...
Loading historical data...
Loading historical data...

Documentation

Showing up to 5 results
|